,,Stat6,,Stat2,,Stat8,,Stat9,,Stat10,,Wind1,,Wind1,
time,status,PA1M_AVG,status,PR1M_SUM,status,RH1M_AVG,status,SR1M_AVG,status,TA1M_AVG,status,W1dAve1m,status,W1sAve1m,
2007-05-09, 00:00:00,VALID,917.037,VALID,0.2,VALID,100,VALID,-0.0849042,VALID,21.7124,VALID,360,VALID,0.308416,
2007-05-09, 00:01:00,VALID,917.033,VALID,0.2,VALID,100,VALID,-0.0169808,VALID,21.7121,VALID,358,VALID,0.575149,
2007-05-09, 00:02:00,VALID,917.031,VALID,0.2,VALID,100,VALID,0,VALID,21.6861,VALID,12,VALID,0.55593,
2007-05-09, 00:03:00,VALID,917.037,VALID,0,VALID,100,VALID,-0.0509425,VALID,21.6867,VALID,1,VALID,1.28162,
2007-05-09, 00:04:00,VALID,917.042,VALID,0.4,VALID,100,VALID,-0.0339617,VALID,21.6934,VALID,335,VALID,0.612645,
2007-05-09, 00:05:00,VALID,917.044,VALID,0,VALID,100,VALID,-0.0339617,VALID,21.6764,VALID,353,VALID,0.274962,
2007-05-09, 00:06:00,VALID,917.043,VALID,0.4,VALID,100,VALID,-0.0169808,VALID,21.6799,VALID,30,VALID,0.179306,
2007-05-09, 00:07:00,VALID,917.035,VALID,0.2,VALID,100,VALID,-0.0339617,VALID,21.6675,VALID,35,VALID,0.481771,
2007-05-09, 00:08:00,VALID,917.035,VALID,0,VALID,100,VALID,-0.0339617,VALID,21.6442,VALID,2,VALID,1.10993,
2007-05-09, 00:09:00,VALID,917.024,VALID,0.2,VALID,100,VALID,-0.0509425,VALID,21.6058,VALID,11,VALID,1.5593,
2007-05-09, 00:10:00,VALID,917.03,VALID,0,VALID,100,VALID,-0.0169808,VALID,21.6082,VALID,29,VALID,2.20108,
2007-05-09, 00:11:00,VALID,917.044,VALID,0,VALID,100,VALID,-0.0339617,VALID,21.6052,VALID,31,VALID,2.10084,
2007-05-09, 00:12:00,VALID,917.05,VALID,0,VALID,100,VALID,-0.0679233,VALID,21.599,VALID,28,VALID,2.39007,
2007-05-09, 00:13:00,VALID,917.055,VALID,0,VALID,100,VALID,-0.0169808,VALID,21.5733,VALID,31,VALID,2.87424,
2007-05-09, 00:14:00,VALID,917.077,VALID,0.2,VALID,100,VALID,-0.0509425,VALID,21.5403,VALID,29,VALID,2.45089,
2007-05-09, 00:15:00,VALID,917.082,VALID,0.4,VALID,100,VALID,-0.0169808,VALID,21.5406,VALID,27,VALID,2.44549,
2007-05-09, 00:16:00,VALID,917.102,VALID,0.6,VALID,100,VALID,-0.0509425,VALID,21.5306,VALID,27,VALID,1.9068,
2007-05-09, 00:17:00,VALID,917.087,VALID,0.6,VALID,100,VALID,-0.0509425,VALID,21.504,VALID,15,VALID,1.50538,
2007-05-09, 00:18:00,VALID,917.087,VALID,0.4,VALID,100,VALID,-0.0339617,VALID,21.4819,VALID,37,VALID,1.7956,
2007-05-09, 00:19:00,VALID,917.085,VALID,0.2,VALID,100,VALID,-0.0509425,VALID,21.4786,VALID,55,VALID,1.5901,
2007-05-09, 00:20:00,VALID,917.068,VALID,0.2,VALID,100,VALID,-0.0339617,VALID,21.4589,VALID,37,VALID,2.43892,
2007-05-09, 00:21:00,VALID,917.081,VALID,0.2,VALID,100,VALID,-0.0679233,VALID,21.4559,VALID,32,VALID,2.01684,
2007-05-09, 00:22:00,VALID,917.087,VALID,0,VALID,100,VALID,-0.0509425,VALID,21.4627,VALID,18,VALID,1.3923,
2007-05-09, 00:23:00,VALID,917.09,VALID,0.2,VALID,100,VALID,-0.0679233,VALID,21.4491,VALID,358,VALID,1.13231,
2007-05-09, 00:24:00,VALID,917.089,VALID,0,VALID,100,VALID,-0.0339617,VALID,21.4426,VALID,339,VALID,1.18387,
2007-05-09, 00:25:00,VALID,917.087,VALID,0,VALID,100,VALID,-0.0339617,VALID,21.4529,VALID,357,VALID,1.03678,
2007-05-09, 00:26:00,VALID,917.088,VALID,0,VALID,100,VALID,0,VALID,21.4621,VALID,355,VALID,1.14323,
2007-05-09, 00:27:00,VALID,917.103,VALID,0,VALID,100,VALID,0,VALID,21.4651,VALID,356,VALID,0.925223,
2007-05-09, 00:28:00,VALID,917.101,VALID,0.2,VALID,100,VALID,0,VALID,21.4681,VALID,352,VALID,0.844727,
2007-05-09, 00:29:00,VALID,917.112,VALID,0,VALID,100,VALID,-0.0169808,VALID,21.4748,VALID,350,VALID,0.792151,
2007-05-09, 00:30:00,VALID,917.115,VALID,0,VALID,100,VALID,-0.0339617,VALID,21.5043,VALID,13,VALID,0.849559,
2007-05-09, 00:31:00,VALID,917.133,VALID,0,VALID,100,VALID,-0.0339617,VALID,21.4748,VALID,357,VALID,0.912791,
2007-05-09, 00:32:00,VALID,917.135,VALID,0.2,VALID,100,VALID,-0.0169808,VALID,21.4719,VALID,353,VALID,0.709162,
2007-05-09, 00:33:00,VALID,917.144,VALID,0,VALID,100,VALID,0,VALID,21.4489,VALID,335,VALID,0.775586,
2007-05-09, 00:34:00,VALID,917.137,VALID,0.2,VALID,100,VALID,0,VALID,21.4359,VALID,326,VALID,0.350229,
2007-05-09, 00:35:00,VALID,917.138,VALID,0.2,VALID,100,VALID,-0.0509425,VALID,21.4656,VALID,15,VALID,0.887277,
2007-05-09, 00:36:00,VALID,917.13,VALID,0,VALID,100,VALID,-0.0509425,VALID,21.4589,VALID,28,VALID,1.29514,
2007-05-09, 00:37:00,VALID,917.103,VALID,0.2,VALID,100,VALID,-0.0509425,VALID,21.4819,VALID,28,VALID,0.787891,
2007-05-09, 00:38:00,VALID,917.09,VALID,0,VALID,100,VALID,-0.0169808,VALID,21.4848,VALID,12,VALID,0.508594,
2007-05-09, 00:39:00,VALID,917.065,VALID,0.2,VALID,100,VALID,-0.0339617,VALID,21.4586,VALID,2,VALID,0.533727,
2007-05-09, 00:40:00,VALID,917.045,VALID,0,VALID,100,VALID,-0.0509425,VALID,21.4878,VALID,14,VALID,0.416921,
2007-05-09, 00:41:00,VALID,917.049,VALID,0,VALID,100,VALID,-0.0339617,VALID,21.5111,VALID,14,VALID,0.598656,
2007-05-09, 00:42:00,VALID,917.014,VALID,0.2,VALID,100,VALID,-0.0339617,VALID,21.5335,VALID,14,VALID,0.393864,
2007-05-09, 00:43:00,VALID,917.013,VALID,0,VALID,100,VALID,-0.0679233,VALID,21.5306,VALID,14,VALID,0.165865,
2007-05-09, 00:44:00,VALID,917.015,VALID,0,VALID,100,VALID,-0.0339617,VALID,21.5398,VALID,14,VALID,0.0193452,
2007-05-09, 00:45:00,VALID,917.013,VALID,0,VALID,100,VALID,-0.0169808,VALID,21.5495,VALID,14,VALID,0.0577363,
2007-05-09, 00:46:00,VALID,917,VALID,0,VALID,100,VALID,-0.0509425,VALID,21.546,VALID,14,VALID,0,
2007-05-09, 00:47:00,VALID,917.008,VALID,0,VALID,100,VALID,-0.0339617,VALID,21.5498,VALID,14,VALID,0,
2007-05-09, 00:48:00,VALID,916.998,VALID,0,VALID,100,VALID,-0.0509425,VALID,21.5598,VALID,14,VALID,0.0130208,
2007-05-09, 00:49:00,VALID,917,VALID,0,VALID,100,VALID,-0.0339617,VALID,21.5465,VALID,14,VALID,0,
2007-05-09, 00:50:00,VALID,916.985,VALID,0,VALID,100,VALID,0,VALID,21.5297,VALID,14,VALID,0.0331101,
2007-05-09, 00:51:00,VALID,916.971,VALID,0.2,VALID,100,VALID,-0.0339617,VALID,21.5233,VALID,14,VALID,0,
2007-05-09, 00:52:00,VALID,916.944,VALID,0,VALID,100,VALID,-0.0509425,VALID,21.5308,VALID,14,VALID,0,
2007-05-09, 00:53:00,VALID,916.937,VALID,0,VALID,100,VALID,-0.0509425,VALID,21.5203,VALID,14,VALID,0,
2007-05-09, 00:54:00,VALID,916.911,VALID,0,VALID,100,VALID,-0.0509425,VALID,21.5303,VALID,14,VALID,0,
2007-05-09, 00:55:00,VALID,916.896,VALID,0,VALID,100,VALID,-0.0679233,VALID,21.5376,VALID,14,VALID,0,
2007-05-09, 00:56:00,VALID,916.887,VALID,0,VALID,100,VALID,-0.0509425,VALID,21.5206,VALID,14,VALID,0,
2007-05-09, 00:57:00,VALID,916.879,VALID,0,VALID,100,VALID,-0.0849042,VALID,21.5208,VALID,14,VALID,0,
2007-05-09, 00:58:00,VALID,916.849,VALID,0,VALID,100,VALID,-0.0339617,VALID,21.5173,VALID,14,VALID,0,
2007-05-09, 00:59:00,VALID,916.841,VALID,0,VALID,100,VALID,0,VALID,21.5203,VALID,14,VALID,0,
2007-05-09, 01:00:00,VALID,916.836,VALID,0,VALID,100,VALID,-0.0169808,VALID,21.5392,VALID,14,VALID,0,
2007-05-09, 01:01:00,VALID,916.825,VALID,0,VALID,100,VALID,0.0339617,VALID,21.5622,VALID,14,VALID,0,
2007-05-09, 01:02:00,VALID,916.824,VALID,0,VALID,100,VALID,0.0169808,VALID,21.5752,VALID,14,VALID,0,
2007-05-09, 01:03:00,VALID,916.793,VALID,0,VALID,100,VALID,0,VALID,21.5787,VALID,14,VALID,0,
2007-05-09, 01:04:00,VALID,916.793,VALID,0,VALID,100,VALID,0,VALID,21.5949,VALID,14,VALID,0,
2007-05-09, 01:05:00,VALID,916.78,VALID,0.2,VALID,100,VALID,0.0169808,VALID,21.5849,VALID,14,VALID,0,
2007-05-09, 01:06:00,VALID,916.786,VALID,0,VALID,100,VALID,-0.0339617,VALID,21.5917,VALID,14,VALID,0.21596,
2007-05-09, 01:07:00,VALID,916.793,VALID,0,VALID,100,VALID,0,VALID,21.5909,VALID,14,VALID,0.21926,
2007-05-09, 01:08:00,VALID,916.793,VALID,0,VALID,100,VALID,0,VALID,21.6074,VALID,14,VALID,0.245561,
2007-05-09, 01:09:00,VALID,916.795,VALID,0,VALID,100,VALID,0.0339617,VALID,21.6369,VALID,19,VALID,0.462847,
2007-05-09, 01:10:00,VALID,916.805,VALID,0,VALID,100,VALID,0.0169808,VALID,21.6499,VALID,19,VALID,0.464177,
2007-05-09, 01:11:00,VALID,916.804,VALID,0,VALID,100,VALID,0.0339617,VALID,21.662,VALID,19,VALID,0.420058,
2007-05-09, 01:12:00,VALID,916.815,VALID,0,VALID,100,VALID,0.0169808,VALID,21.6626,VALID,19,VALID,0.326451,
2007-05-09, 01:13:00,VALID,916.83,VALID,0,VALID,100,VALID,0,VALID,21.6788,VALID,19,VALID,0.363104,
2007-05-09, 01:14:00,VALID,916.831,VALID,0,VALID,100,VALID,-0.0679233,VALID,21.6929,VALID,19,VALID,0.362233,
2007-05-09, 01:15:00,VALID,916.848,VALID,0,VALID,100,VALID,-0.101885,VALID,21.648,VALID,19,VALID,0.164844,
2007-05-09, 01:16:00,VALID,916.873,VALID,0,VALID,100,VALID,-0.118866,VALID,21.6577,VALID,19,VALID,0.330903,
2007-05-09, 01:17:00,VALID,916.889,VALID,0,VALID,100,VALID,-0.101885,VALID,21.648,VALID,19,VALID,0.212612,
2007-05-09, 01:18:00,VALID,916.903,VALID,0,VALID,100,VALID,-0.0849042,VALID,21.6515,VALID,19,VALID,0.0904796,
2007-05-09, 01:19:00,VALID,916.904,VALID,0,VALID,100,VALID,-0.101885,VALID,21.6515,VALID,19,VALID,0.00651042,
2007-05-09, 01:20:00,VALID,916.919,VALID,0,VALID,100,VALID,-0.101885,VALID,21.622,VALID,19,VALID,0,
2007-05-09, 01:21:00,VALID,916.908,VALID,0,VALID,100,VALID,-0.101885,VALID,21.6028,VALID,19,VALID,0.185501,
2007-05-09, 01:22:00,VALID,916.915,VALID,0,VALID,100,VALID,-0.101885,VALID,21.6098,VALID,19,VALID,0.0712209,
2007-05-09, 01:23:00,VALID,916.897,VALID,0,VALID,100,VALID,-0.101885,VALID,21.5831,VALID,19,VALID,0.00208333,
2007-05-09, 01:24:00,VALID,916.911,VALID,0,VALID,100,VALID,-0.0849042,VALID,21.5768,VALID,19,VALID,0.207031,
2007-05-09, 01:25:00,VALID,916.898,VALID,0,VALID,100,VALID,-0.0849042,VALID,21.5571,VALID,24,VALID,0.581936,
2007-05-09, 01:26:00,VALID,916.884,VALID,0,VALID,100,VALID,-0.0849042,VALID,21.5438,VALID,25,VALID,0.584666,
2007-05-09, 01:27:00,VALID,916.876,VALID,0,VALID,100,VALID,-0.101885,VALID,21.5184,VALID,25,VALID,0.367535,
2007-05-09, 01:28:00,VALID,916.878,VALID,0,VALID,100,VALID,-0.0849042,VALID,21.5281,VALID,22,VALID,0.47889,
2007-05-09, 01:29:00,VALID,916.854,VALID,0.2,VALID,100,VALID,-0.0169808,VALID,21.504,VALID,18,VALID,0.516927,
2007-05-09, 01:30:00,VALID,916.822,VALID,0,VALID,100,VALID,0,VALID,21.5035,VALID,22,VALID,0.431108,
2007-05-09, 01:31:00,VALID,916.813,VALID,0,VALID,100,VALID,0.0339617,VALID,21.5103,VALID,15,VALID,0.480841,
2007-05-09, 01:32:00,VALID,916.791,VALID,0,VALID,100,VALID,0,VALID,21.494,VALID,5,VALID,0.64234,
2007-05-09, 01:33:00,VALID,916.765,VALID,0,VALID,100,VALID,0,VALID,21.4778,VALID,14,VALID,0.558594,
2007-05-09, 01:34:00,VALID,916.735,VALID,0,VALID,100,VALID,0.0679233,VALID,21.4805,VALID,22,VALID,0.278125,
2007-05-09, 01:35:00,VALID,916.731,VALID,0,VALID,100,VALID,-0.0169808,VALID,21.4938,VALID,22,VALID,0.13899,
2007-05-09, 01:36:00,VALID,916.708,VALID,0,VALID,100,VALID,0.0339617,VALID,21.4965,VALID,22,VALID,0.0584936,
2007-05-09, 01:37:00,VALID,916.701,VALID,0,VALID,100,VALID,-0.0169808,VALID,21.5097,VALID,22,VALID,0.00426136,
2007-05-09, 01:38:00,VALID,916.702,VALID,0,VALID,100,VALID,0,VALID,21.53,VALID,22,VALID,0.118459,
2007-05-09, 01:39:00,VALID,916.722,VALID,0,VALID,100,VALID,0,VALID,21.556,VALID,22,VALID,0.238194,
2007-05-09, 01:40:00,VALID,916.713,VALID,0,VALID,100,VALID,-0.0169808,VALID,21.5914,VALID,22,VALID,0.0262153,
2007-05-09, 01:41:00,VALID,916.716,VALID,0,VALID,100,VALID,0,VALID,21.6142,VALID,22,VALID,0.0344122,
2007-05-09, 01:42:00,VALID,916.718,VALID,0,VALID,100,VALID,0,VALID,21.6206,VALID,22,VALID,0,
2007-05-09, 01:43:00,VALID,916.725,VALID,0,VALID,100,VALID,-0.0169808,VALID,21.6239,VALID,22,VALID,0.011814,
2007-05-09, 01:44:00,VALID,916.707,VALID,0,VALID,100,VALID,-0.0849042,VALID,21.6147,VALID,22,VALID,0,
2007-05-09, 01:45:00,VALID,916.694,VALID,0,VALID,100,VALID,-0.0679233,VALID,21.5768,VALID,22,VALID,0.168576,
2007-05-09, 01:46:00,VALID,916.661,VALID,0,VALID,100,VALID,-0.101885,VALID,21.5349,VALID,22,VALID,0.0216619,
2007-05-09, 01:47:00,VALID,916.623,VALID,0,VALID,100,VALID,-0.101885,VALID,21.5149,VALID,22,VALID,0.046317,
2007-05-09, 01:48:00,VALID,916.597,VALID,0,VALID,100,VALID,-0.101885,VALID,21.5281,VALID,22,VALID,0.128815,
2007-05-09, 01:49:00,VALID,916.571,VALID,0,VALID,100,VALID,-0.0849042,VALID,21.5674,VALID,22,VALID,0.225142,
2007-05-09, 01:50:00,VALID,916.544,VALID,0,VALID,100,VALID,-0.101885,VALID,21.5893,VALID,22,VALID,0.0385417,
2007-05-09, 01:51:00,VALID,916.525,VALID,0,VALID,100,VALID,-0.118866,VALID,21.6161,VALID,22,VALID,0,
2007-05-09, 01:52:00,VALID,916.51,VALID,0,VALID,100,VALID,-0.135847,VALID,21.6255,VALID,22,VALID,0,
2007-05-09, 01:53:00,VALID,916.489,VALID,0,VALID,100,VALID,-0.101885,VALID,21.6253,VALID,22,VALID,0,
2007-05-09, 01:54:00,VALID,916.483,VALID,0,VALID,100,VALID,-0.118866,VALID,21.6125,VALID,22,VALID,0,
2007-05-09, 01:55:01,VALID,916.463,VALID,0,VALID,100,VALID,-0.101885,VALID,21.6061,VALID,22,VALID,0,
2007-05-09, 01:56:00,VALID,916.437,VALID,0,VALID,100,VALID,-0.101885,VALID,21.5996,VALID,22,VALID,0,
2007-05-09, 01:57:00,VALID,916.428,VALID,0,VALID,100,VALID,-0.101885,VALID,21.6028,VALID,22,VALID,0,
2007-05-09, 01:58:01,VALID,916.408,VALID,0,VALID,100,VALID,-0.101885,VALID,21.6093,VALID,22,VALID,0.000679348,
2007-05-09, 01:59:00,VALID,916.397,VALID,0,VALID,100,VALID,-0.0849042,VALID,21.6247,VALID,22,VALID,0.161222,
2007-05-09, 02:00:00,VALID,916.381,VALID,0,VALID,100,VALID,0,VALID,21.6174,VALID,22,VALID,0.475497,
2007-05-09, 02:01:00,VALID,916.365,VALID,0,VALID,100,VALID,0,VALID,21.6209,VALID,29,VALID,0.835938,
2007-05-09, 02:02:00,VALID,916.36,VALID,0,VALID,100,VALID,0,VALID,21.5979,VALID,34,VALID,0.981534,
2007-05-09, 02:03:00,VALID,916.363,VALID,0,VALID,100,VALID,-0.0339617,VALID,21.5852,VALID,45,VALID,0.416548,
2007-05-09, 02:04:01,VALID,916.357,VALID,0,VALID,100,VALID,-0.0169808,VALID,21.5852,VALID,51,VALID,0.228198,
2007-05-09, 02:05:00,VALID,916.351,VALID,0,VALID,100,VALID,-0.0339617,VALID,21.5793,VALID,51,VALID,0.146577,
2007-05-09, 02:06:00,VALID,916.34,VALID,0,VALID,100,VALID,-0.0339617,VALID,21.5592,VALID,51,VALID,0.255022,
2007-05-09, 02:07:00,VALID,916.321,VALID,0,VALID,100,VALID,0,VALID,21.5849,VALID,51,VALID,0.0481771,
2007-05-09, 02:08:00,VALID,916.324,VALID,0,VALID,100,VALID,0.0169808,VALID,21.5784,VALID,51,VALID,0.0955669,
2007-05-09, 02:09:00,VALID,916.317,VALID,0,VALID,100,VALID,-0.0169808,VALID,21.579,VALID,51,VALID,0.10738,
2007-05-09, 02:10:00,VALID,916.294,VALID,0,VALID,100,VALID,-0.0339617,VALID,21.5852,VALID,51,VALID,0.0539608,
2007-05-09, 02:11:00,VALID,916.276,VALID,0,VALID,100,VALID,0,VALID,21.6044,VALID,51,VALID,0,
2007-05-09, 02:12:00,VALID,916.27,VALID,0,VALID,100,VALID,0,VALID,21.6047,VALID,51,VALID,0,
2007-05-09, 02:13:00,VALID,916.282,VALID,0,VALID,100,VALID,-0.0169808,VALID,21.5987,VALID,51,VALID,0,
2007-05-09, 02:14:01,VALID,916.285,VALID,0,VALID,100,VALID,0,VALID,21.556,VALID,51,VALID,0.147675,
2007-05-09, 02:15:00,VALID,916.294,VALID,0,VALID,100,VALID,-0.0339617,VALID,21.5398,VALID,50,VALID,0.509766,
2007-05-09, 02:16:00,VALID,916.293,VALID,0,VALID,100,VALID,-0.0169808,VALID,21.5492,VALID,39,VALID,0.924293,
2007-05-09, 02:17:01,VALID,916.285,VALID,0,VALID,100,VALID,-0.0339617,VALID,21.5403,VALID,37,VALID,0.728391,
2007-05-09, 02:18:00,VALID,916.268,VALID,0,VALID,100,VALID,-0.0339617,VALID,21.5233,VALID,43,VALID,0.716388,
2007-05-09, 02:19:00,VALID,916.238,VALID,0,VALID,100,VALID,-0.0169808,VALID,21.5371,VALID,42,VALID,0.536272,
2007-05-09, 02:20:00,VALID,916.219,VALID,0,VALID,100,VALID,-0.0169808,VALID,21.504,VALID,42,VALID,0.180432,
2007-05-09, 02:21:00,VALID,916.199,VALID,0,VALID,100,VALID,0,VALID,21.517,VALID,42,VALID,0.00399709,
2007-05-09, 02:22:00,VALID,916.18,VALID,0,VALID,100,VALID,-0.0339617,VALID,21.53,VALID,42,VALID,0.0509588,
2007-05-09, 02:23:00,VALID,916.18,VALID,0,VALID,100,VALID,-0.0339617,VALID,21.527,VALID,42,VALID,0.176711,
2007-05-09, 02:24:00,VALID,916.183,VALID,0,VALID,100,VALID,-0.0169808,VALID,21.5341,VALID,42,VALID,0.445871,
2007-05-09, 02:25:00,VALID,916.171,VALID,0,VALID,100,VALID,0,VALID,21.5008,VALID,42,VALID,0.526758,
2007-05-09, 02:26:00,VALID,916.178,VALID,0,VALID,100,VALID,-0.0339617,VALID,21.4911,VALID,36,VALID,0.656977,
2007-05-09, 02:27:00,VALID,916.168,VALID,0,VALID,100,VALID,-0.0339617,VALID,21.4848,VALID,34,VALID,0.686942,
2007-05-09, 02:28:00,VALID,916.156,VALID,0,VALID,100,VALID,0,VALID,21.4559,VALID,39,VALID,0.562314,
2007-05-09, 02:29:01,VALID,916.134,VALID,0,VALID,100,VALID,-0.0339617,VALID,21.4424,VALID,39,VALID,0.470238,
2007-05-09, 02:30:01,VALID,916.122,VALID,0,VALID,100,VALID,0,VALID,21.4686,VALID,39,VALID,0.281613,
2007-05-09, 02:31:00,VALID,916.111,VALID,0,VALID,100,VALID,0,VALID,21.4616,VALID,39,VALID,0.18045,
2007-05-09, 02:32:00,VALID,916.096,VALID,0,VALID,100,VALID,-0.0169808,VALID,21.4164,VALID,38,VALID,0.0492932,
2007-05-09, 02:33:01,VALID,916.106,VALID,0,VALID,100,VALID,0,VALID,21.4102,VALID,38,VALID,0.11441,
2007-05-09, 02:34:00,VALID,916.104,VALID,0,VALID,100,VALID,0,VALID,21.4029,VALID,38,VALID,0.633176,
2007-05-09, 02:35:01,VALID,916.108,VALID,0,VALID,100,VALID,-0.0339617,VALID,21.3966,VALID,39,VALID,0.652158,
2007-05-09, 02:36:00,VALID,916.099,VALID,0,VALID,100,VALID,0,VALID,21.3774,VALID,39,VALID,0.80599,
2007-05-09, 02:37:00,VALID,916.094,VALID,0,VALID,100,VALID,-0.0169808,VALID,21.352,VALID,37,VALID,0.654797,
2007-05-09, 02:38:00,VALID,916.094,VALID,0,VALID,100,VALID,-0.0169808,VALID,21.3512,VALID,33,VALID,0.654167,
2007-05-09, 02:39:01,VALID,916.102,VALID,0,VALID,100,VALID,0,VALID,21.3515,VALID,33,VALID,0.653011,
2007-05-09, 02:40:00,VALID,916.115,VALID,0,VALID,100,VALID,-0.0339617,VALID,21.3417,VALID,32,VALID,0.676448,
2007-05-09, 02:41:01,VALID,916.126,VALID,0,VALID,100,VALID,-0.0339617,VALID,21.3612,VALID,32,VALID,0.456321,
2007-05-09, 02:42:00,VALID,916.146,VALID,0,VALID,100,VALID,0,VALID,21.3807,VALID,32,VALID,0.441311,
2007-05-09, 02:43:00,VALID,916.149,VALID,0,VALID,100,VALID,-0.0679233,VALID,21.352,VALID,32,VALID,0.202415,
2007-05-09, 02:44:01,VALID,916.149,VALID,0,VALID,100,VALID,-0.0169808,VALID,21.3417,VALID,32,VALID,0.31901,
2007-05-09, 02:45:00,VALID,916.145,VALID,0,VALID,100,VALID,-0.0169808,VALID,21.3577,VALID,32,VALID,0.289971,
2007-05-09, 02:46:01,VALID,916.139,VALID,0,VALID,100,VALID,0,VALID,21.3542,VALID,32,VALID,0.135937,
2007-05-09, 02:47:01,VALID,916.134,VALID,0,VALID,100,VALID,0,VALID,21.3544,VALID,32,VALID,0.00280449,
2007-05-09, 02:48:01,VALID,916.13,VALID,0,VALID,100,VALID,0,VALID,21.345,VALID,32,VALID,0,
2007-05-09, 02:49:01,VALID,916.138,VALID,0,VALID,100,VALID,-0.0169808,VALID,21.3415,VALID,32,VALID,0,
2007-05-09, 02:50:01,VALID,916.159,VALID,0,VALID,100,VALID,-0.0169808,VALID,21.3185,VALID,32,VALID,0,
2007-05-09, 02:51:01,VALID,916.169,VALID,0,VALID,100,VALID,0,VALID,21.3187,VALID,32,VALID,0,
2007-05-09, 02:52:01,VALID,916.185,VALID,0,VALID,100,VALID,-0.0169808,VALID,21.3252,VALID,32,VALID,0,
2007-05-09, 02:53:01,VALID,916.208,VALID,0,VALID,100,VALID,0,VALID,21.322,VALID,32,VALID,0,
2007-05-09, 02:54:01,VALID,916.202,VALID,0,VALID,100,VALID,0,VALID,21.3388,VALID,32,VALID,0.0270712,
2007-05-09, 02:55:01,VALID,916.209,VALID,0,VALID,100,VALID,0,VALID,21.3382,VALID,32,VALID,0.0179332,
2007-05-09, 02:56:01,VALID,916.226,VALID,0,VALID,100,VALID,-0.0849042,VALID,21.3617,VALID,32,VALID,0,
2007-05-09, 02:57:00,VALID,916.233,VALID,0,VALID,100,VALID,0,VALID,21.3777,VALID,32,VALID,0.0498047,
2007-05-09, 02:58:00,VALID,916.255,VALID,0,VALID,100,VALID,0,VALID,21.3807,VALID,32,VALID,0.170486,
2007-05-09, 02:59:00,VALID,916.253,VALID,0,VALID,100,VALID,-0.0169808,VALID,21.3807,VALID,329,VALID,0.336111,
2007-05-09, 03:00:00,VALID,916.273,VALID,0,VALID,100,VALID,0,VALID,21.3872,VALID,262,VALID,0.392045,
2007-05-09, 03:01:00,VALID,916.285,VALID,0,VALID,100,VALID,0,VALID,21.3739,VALID,247,VALID,0.154433,
2007-05-09, 03:02:00,VALID,916.294,VALID,0,VALID,100,VALID,-0.0169808,VALID,21.3872,VALID,247,VALID,0,
2007-05-09, 03:03:00,VALID,916.294,VALID,0,VALID,100,VALID,0,VALID,21.3804,VALID,247,VALID,0.0792411,
2007-05-09, 03:04:00,VALID,916.29,VALID,0,VALID,100,VALID,0.0169808,VALID,21.3672,VALID,247,VALID,0.195486,
2007-05-09, 03:05:00,VALID,916.292,VALID,0,VALID,100,VALID,0,VALID,21.3772,VALID,247,VALID,0.0625,
2007-05-09, 03:06:00,VALID,916.289,VALID,0,VALID,100,VALID,-0.0339617,VALID,21.3645,VALID,249,VALID,0.72745,
2007-05-09, 03:07:00,VALID,916.28,VALID,0,VALID,100,VALID,0,VALID,21.3223,VALID,251,VALID,0.63681,
2007-05-09, 03:08:00,VALID,916.282,VALID,0,VALID,100,VALID,0,VALID,21.2863,VALID,250,VALID,0.608487,
2007-05-09, 03:09:00,VALID,916.283,VALID,0,VALID,100,VALID,-0.0339617,VALID,21.2441,VALID,250,VALID,0.69077,
2007-05-09, 03:10:00,VALID,916.284,VALID,0,VALID,100,VALID,0,VALID,21.2246,VALID,258,VALID,0.841332,
2007-05-09, 03:11:00,VALID,916.286,VALID,0,VALID,100,VALID,0,VALID,21.2116,VALID,254,VALID,0.429861,
2007-05-09, 03:12:00,VALID,916.265,VALID,0,VALID,100,VALID,-0.0169808,VALID,21.2149,VALID,250,VALID,0.317472,
2007-05-09, 03:13:00,VALID,916.257,VALID,0,VALID,100,VALID,-0.0339617,VALID,21.2154,VALID,250,VALID,0.591087,
2007-05-09, 03:14:00,VALID,916.243,VALID,0,VALID,100,VALID,-0.0509425,VALID,21.2021,VALID,250,VALID,0.345348,
2007-05-09, 03:15:00,VALID,916.241,VALID,0,VALID,100,VALID,-0.0169808,VALID,21.1921,VALID,250,VALID,0.209847,
2007-05-09, 03:16:00,VALID,916.248,VALID,0,VALID,100,VALID,-0.0509425,VALID,21.2062,VALID,250,VALID,0.100472,
2007-05-09, 03:17:00,VALID,916.247,VALID,0,VALID,100,VALID,-0.0339617,VALID,21.2019,VALID,250,VALID,0.186942,
2007-05-09, 03:18:00,VALID,916.254,VALID,0,VALID,100,VALID,0,VALID,21.2092,VALID,250,VALID,0.0431548,
2007-05-09, 03:19:00,VALID,916.263,VALID,0,VALID,100,VALID,0,VALID,21.2019,VALID,250,VALID,0.0128997,
2007-05-09, 03:20:00,VALID,916.257,VALID,0,VALID,100,VALID,-0.0169808,VALID,21.2057,VALID,250,VALID,0.0015625,
2007-05-09, 03:21:00,VALID,916.256,VALID,0,VALID,100,VALID,0,VALID,21.2084,VALID,250,VALID,0,
2007-05-09, 03:22:00,VALID,916.252,VALID,0,VALID,100,VALID,0,VALID,21.2019,VALID,250,VALID,0,
2007-05-09, 03:23:00,VALID,916.227,VALID,0,VALID,100,VALID,-0.0169808,VALID,21.2216,VALID,250,VALID,0.0305233,
2007-05-09, 03:24:00,VALID,916.226,VALID,0,VALID,100,VALID,-0.0509425,VALID,21.2216,VALID,250,VALID,0.298177,
2007-05-09, 03:25:00,VALID,916.215,VALID,0,VALID,100,VALID,-0.0169808,VALID,21.2376,VALID,250,VALID,0.234738,
2007-05-09, 03:26:00,VALID,916.224,VALID,0,VALID,100,VALID,-0.0169808,VALID,21.2343,VALID,250,VALID,0.0684524,
2007-05-09, 03:27:00,VALID,916.229,VALID,0,VALID,100,VALID,-0.0169808,VALID,21.2343,VALID,250,VALID,0.261083,
2007-05-09, 03:28:00,VALID,916.227,VALID,0,VALID,100,VALID,0,VALID,21.2373,VALID,247,VALID,0.186806,
2007-05-09, 03:29:00,VALID,916.224,VALID,0,VALID,100,VALID,0,VALID,21.2441,VALID,246,VALID,0.356286,
2007-05-09, 03:30:00,VALID,916.201,VALID,0,VALID,100,VALID,-0.0169808,VALID,21.2441,VALID,246,VALID,0.117369,
2007-05-09, 03:31:00,VALID,916.196,VALID,0,VALID,100,VALID,0,VALID,21.2441,VALID,244,VALID,0.291867,
2007-05-09, 03:32:00,VALID,916.174,VALID,0,VALID,100,VALID,0,VALID,21.2446,VALID,241,VALID,0.11795,
2007-05-09, 03:33:00,VALID,916.165,VALID,0,VALID,100,VALID,-0.0169808,VALID,21.2278,VALID,241,VALID,0.113467,
2007-05-09, 03:34:00,VALID,916.162,VALID,0,VALID,100,VALID,-0.0169808,VALID,21.2379,VALID,243,VALID,0.309961,
2007-05-09, 03:35:00,VALID,916.163,VALID,0,VALID,100,VALID,-0.0339617,VALID,21.1957,VALID,248,VALID,0.501488,
2007-05-09, 03:36:00,VALID,916.172,VALID,0,VALID,100,VALID,-0.0339617,VALID,21.1859,VALID,248,VALID,0.36441,
2007-05-09, 03:37:00,VALID,916.183,VALID,0,VALID,100,VALID,-0.0339617,VALID,21.1894,VALID,244,VALID,0.291788,
2007-05-09, 03:38:00,VALID,916.174,VALID,0,VALID,100,VALID,-0.0509425,VALID,21.1927,VALID,243,VALID,0.151562,
2007-05-09, 03:39:00,VALID,916.167,VALID,0.2,VALID,100,VALID,-0.0339617,VALID,21.1729,VALID,243,VALID,0.0948153,
2007-05-09, 03:40:00,VALID,916.166,VALID,0,VALID,100,VALID,-0.0339617,VALID,21.1599,VALID,243,VALID,0.133345,
2007-05-09, 03:41:00,VALID,916.155,VALID,0,VALID,100,VALID,-0.0849042,VALID,21.16,VALID,243,VALID,0.328726,
2007-05-09, 03:42:00,VALID,916.135,VALID,0,VALID,100,VALID,-0.0509425,VALID,21.1313,VALID,243,VALID,0.382639,
2007-05-09, 03:43:00,VALID,916.122,VALID,0,VALID,100,VALID,-0.0679233,VALID,21.1253,VALID,243,VALID,0.294336,